Calhoun, IL

3:11 AM CDT on August 26, 2016 (GMT -0500)
Olney-Noble

Weather History for KOLY - June, 2013

Change the Weather History Date:

Friday, June 14, 2013

  Actual Average (KEVV) Record (KEVV)
Temperature  
Mean Temperature 70 °F 75 °F  
Max Temperature 84 °F 86 °F 96 °F (1920)
Min Temperature 57 °F 64 °F 49 °F (1955)
Degree Days  
Heating Degree Days 0 0  
Month to date heating degree days 4  
Since 1 June heating degree days 4  
Since 1 July heating degree days 4545  
Cooling Degree Days 6 10  
Month to date cooling degree days 113  
Year to date cooling degree days 248  
Since 1 June cooling degree days 113  
Growing Degree Days 20 (Base 50)    
Moisture  
Dew Point 57 °F    
Average Humidity 63    
Maximum Humidity 100    
Minimum Humidity 35    
Precipitation  
Precipitation 0.00 in 0.13 in 0.96 in (1944)
Month to date precipitation 1.96  
Year to date precipitation 22.20  
Snow  
Snow 0.00 in 0.00 in - ()
Month to date snowfall 0.0  
Since 1 June snowfall 0.0  
Since 1 July snowfall 11.8  
Snow Depth -    
Sea Level Pressure  
Sea Level Pressure 30.04 in    
Wind  
Wind Speed 4 mph (North)    
Max Wind Speed 10 mph    
Max Gust Speed -    
Visibility 10 miles    
Events      
T = Trace of Precipitation, MM = Missing Value Source: NWS Daily Summary

Daily Weather History Graph

Daily Weather History Graph

Search for Another Location

Airport or City:

Trip Planner

Search our weather history database for the weather conditions in past years. The results will help you decide how hot, cold, wet, or windy it might be!

Date:

Astronomy

Jun. 14, 2013 Rise Set
Actual Time 5:27 AM CDT 8:18 PM CDT
Civil Twilight 4:55 AM CDT 8:50 PM CDT
Nautical Twilight 4:15 AM CDT 9:31 PM CDT
Astronomical Twilight 3:29 AM CDT 10:17 PM CDT
Moon 10:59 AM CDT (6/14) 11:58 PM CDT (6/14)
Length of Visible Light 15h 55m
Length of Day
14h 51m
Waxing Crescent, 30% of the Moon is Illuminated
Jun 14
Waxing Crescent
Jun 16
First Quarter
Jun 23
Full
Jun 29
Last Quarter
Jul 8
New

Hourly Weather History & Observations

Time (CDT) Temp. Heat Index Dew Point Humidity Pressure Visibility Wind Dir Wind Speed Gust Speed Precip Events Conditions
12:15 AM 64.4 °F - 57.2 °F 77% 29.97 in 10.0 mi NE 3.5 mph - N/A   Clear
12:35 AM 64.4 °F - 55.4 °F 73% 29.97 in 10.0 mi NE 4.6 mph - N/A   Clear
12:55 AM 64.4 °F - 55.4 °F 73% 29.98 in 10.0 mi NE 4.6 mph - N/A   Clear
1:15 AM 64.4 °F - 55.4 °F 73% 29.99 in 10.0 mi ENE 3.5 mph - N/A   Clear
1:35 AM 64.4 °F - 55.4 °F 73% 29.99 in 10.0 mi ENE 4.6 mph - N/A   Clear
1:55 AM 64.4 °F - 55.4 °F 73% 30.00 in 10.0 mi NE 4.6 mph - N/A   Clear
2:15 AM 64.4 °F - 55.4 °F 73% 30.00 in 10.0 mi NE 3.5 mph - N/A   Clear
2:35 AM 62.6 °F - 55.4 °F 77% 30.01 in 10.0 mi NE 3.5 mph - N/A   Clear
2:55 AM 62.6 °F - 55.4 °F 77% 30.02 in 10.0 mi Calm Calm - N/A   Clear
3:15 AM 60.8 °F - 57.2 °F 88% 30.03 in 10.0 mi Calm Calm - N/A   Clear
3:35 AM 60.8 °F - 57.2 °F 88% 30.03 in 10.0 mi WNW 3.5 mph - N/A   Clear
3:55 AM 59.0 °F - 57.2 °F 94% 30.03 in 10.0 mi Calm Calm - N/A   Clear
4:15 AM 59.0 °F - 57.2 °F 94% 30.02 in 10.0 mi Calm Calm - N/A   Clear
4:35 AM 59.0 °F - 57.2 °F 94% 30.03 in 10.0 mi Calm Calm - N/A   Clear
4:55 AM 59.0 °F - 57.2 °F 94% 30.03 in 10.0 mi NW 3.5 mph - N/A   Clear
5:15 AM 59.0 °F - 57.2 °F 94% 30.03 in 10.0 mi WNW 5.8 mph - N/A   Clear
5:35 AM 57.2 °F - 57.2 °F 100% 30.05 in 10.0 mi NW 3.5 mph - N/A   Clear
5:55 AM 60.8 °F - 57.2 °F 88% 30.05 in 10.0 mi NW 4.6 mph - N/A   Clear
6:15 AM 62.6 °F - 57.2 °F 82% 30.05 in 10.0 mi WNW 4.6 mph - N/A   Clear
6:35 AM 62.6 °F - 57.2 °F 82% 30.06 in 10.0 mi NNW 5.8 mph - N/A   Clear
6:55 AM 64.4 °F - 57.2 °F 77% 30.05 in 10.0 mi NNW 5.8 mph - N/A   Clear
7:15 AM 66.2 °F - 57.2 °F 73% 30.06 in 10.0 mi NNW 5.8 mph - N/A   Clear
7:35 AM 66.2 °F - 57.2 °F 73% 30.06 in 10.0 mi North 5.8 mph - N/A   Clear
7:55 AM 68.0 °F - 55.4 °F 64% 30.07 in 10.0 mi NNW 5.8 mph - N/A   Clear
8:15 AM 69.8 °F - 55.4 °F 60% 30.08 in 10.0 mi NNW 4.6 mph - N/A   Clear
8:35 AM 69.8 °F - 55.4 °F 60% 30.09 in 10.0 mi NW 6.9 mph - N/A   Clear
9:15 AM 71.6 °F - 57.2 °F 60% 30.09 in 10.0 mi North 4.6 mph - N/A   Clear
9:35 AM 71.6 °F - 55.4 °F 57% 30.09 in 10.0 mi North 6.9 mph - N/A   Clear
9:55 AM 73.4 °F - 55.4 °F 53% 30.09 in 10.0 mi NNW 4.6 mph - N/A   Clear
10:15 AM 75.2 °F - 57.2 °F 53% 30.09 in 10.0 mi NNW 4.6 mph - N/A   Clear
10:35 AM 75.2 °F - 55.4 °F 50% 30.09 in 10.0 mi NNW 5.8 mph - N/A   Clear
10:55 AM 77.0 °F - 55.4 °F 47% 30.08 in 10.0 mi North 8.1 mph - N/A   Clear
11:15 AM 77.0 °F - 55.4 °F 47% 30.07 in 10.0 mi North 9.2 mph - N/A   Clear
11:35 AM 78.8 °F - 55.4 °F 44% 30.07 in 10.0 mi NNW 6.9 mph - N/A   Clear
11:55 AM 78.8 °F - 53.6 °F 42% 30.07 in 10.0 mi North 8.1 mph - N/A   Clear
12:15 PM 80.6 °F 80.5 °F 55.4 °F 42% 30.07 in 10.0 mi NNW 8.1 mph - N/A   Clear
12:35 PM 80.6 °F 80.5 °F 55.4 °F 42% 30.06 in 10.0 mi NNW 5.8 mph - N/A   Clear
12:55 PM 80.6 °F 80.5 °F 55.4 °F 42% 30.07 in 10.0 mi NW 6.9 mph - N/A   Clear
1:15 PM 82.4 °F 81.7 °F 55.4 °F 39% 30.07 in 10.0 mi NW 8.1 mph - N/A   Clear
1:35 PM 82.4 °F 81.7 °F 55.4 °F 39% 30.06 in 10.0 mi NNW 5.8 mph - N/A   Clear
1:55 PM 82.4 °F 81.7 °F 55.4 °F 39% 30.06 in 10.0 mi NNE 6.9 mph - N/A   Clear
2:15 PM 82.4 °F 81.7 °F 55.4 °F 39% 30.05 in 10.0 mi NNW 4.6 mph - N/A   Clear
2:35 PM 84.2 °F 82.8 °F 53.6 °F 35% 30.05 in 10.0 mi NNE 9.2 mph - N/A   Clear
2:55 PM 82.4 °F 81.4 °F 53.6 °F 37% 30.07 in 10.0 mi NNE 3.5 mph - N/A   Clear
3:15 PM 82.4 °F 81.7 °F 55.4 °F 39% 30.07 in 10.0 mi North 6.9 mph - N/A   Clear
3:35 PM 84.2 °F 83.0 °F 55.4 °F 37% 30.06 in 10.0 mi NNE 6.9 mph - N/A   Clear
3:55 PM 82.4 °F 81.4 °F 53.6 °F 37% 30.07 in 10.0 mi North 6.9 mph - N/A   Clear
4:15 PM 84.2 °F 83.0 °F 55.4 °F 37% 30.05 in 10.0 mi NNW 5.8 mph - N/A   Clear
4:35 PM 82.4 °F 81.4 °F 53.6 °F 37% 30.04 in 10.0 mi North 5.8 mph - N/A   Clear
4:55 PM 82.4 °F 81.7 °F 55.4 °F 39% 30.03 in 10.0 mi NNE 5.8 mph - N/A   Clear
5:15 PM 80.6 °F 80.5 °F 55.4 °F 42% 30.03 in 10.0 mi NNE 5.8 mph - N/A   Clear
5:35 PM 80.6 °F 80.5 °F 55.4 °F 42% 30.03 in 10.0 mi NE 3.5 mph - N/A   Clear
5:55 PM 80.6 °F 80.5 °F 55.4 °F 42% 30.02 in 10.0 mi NNE 3.5 mph - N/A   Clear
6:15 PM 80.6 °F 80.5 °F 55.4 °F 42% 30.00 in 10.0 mi East 5.8 mph - N/A   Clear
6:35 PM 80.6 °F 80.3 °F 53.6 °F 39% 29.99 in 10.0 mi East 5.8 mph - N/A   Clear
6:55 PM 80.6 °F 80.5 °F 55.4 °F 42% 29.97 in 10.0 mi East 6.9 mph - N/A   Clear
7:15 PM 78.8 °F - 57.2 °F 47% 29.96 in 10.0 mi East 10.4 mph - N/A   Clear
7:35 PM 78.8 °F - 57.2 °F 47% 30.00 in 10.0 mi Calm Calm - N/A   Clear
7:55 PM 75.2 °F - 59.0 °F 57% 30.00 in 10.0 mi Calm Calm - N/A   Clear
8:15 PM 73.4 °F - 60.8 °F 65% 30.01 in 10.0 mi Calm Calm - N/A   Clear
8:35 PM 73.4 °F - 60.8 °F 65% 30.01 in 10.0 mi Calm Calm - N/A   Clear
8:55 PM 71.6 °F - 62.6 °F 73% 30.02 in 10.0 mi Calm Calm - N/A   Clear
9:15 PM 69.8 °F - 64.4 °F 83% 30.02 in 10.0 mi Calm Calm - N/A   Clear
9:35 PM 69.8 °F - 62.6 °F 78% 30.02 in 10.0 mi Calm Calm - N/A   Clear
9:55 PM 66.2 °F - 62.6 °F 88% 30.02 in 10.0 mi Calm Calm - N/A   Clear
10:15 PM 69.8 °F - 62.6 °F 78% 30.03 in 10.0 mi Calm Calm - N/A   Clear
10:35 PM 68.0 °F - 64.4 °F 88% 30.04 in 10.0 mi Calm Calm - N/A   Clear
10:55 PM 66.2 °F - 64.4 °F 94% 30.04 in 10.0 mi Calm Calm - N/A   Clear
11:15 PM 66.2 °F - 62.6 °F 88% 30.04 in 10.0 mi Calm Calm - N/A   Clear
11:35 PM 66.2 °F - 62.6 °F 88% 30.04 in 10.0 mi Calm Calm - N/A   Clear
11:55 PM 64.4 °F - 62.6 °F 94% 30.04 in 10.0 mi Calm Calm - N/A   Clear